GW2924 Weather Reports


Display with metric or nautical units.
time (UTC)temp
F
wind
direction
speed
MPH
gust
MPH
rain 1hr
in
rain 24hr
in
rain mn
in
humidity
%
barometer
mb
20260508063055 44 168 2.0 6.0 0.00 0.00 0.00 42 1009.8
20260508062553 44 194 1.0 6.0 0.00 0.00 0.00 42 1009.7
20260508062053 44 211 2.0 7.0 0.00 0.00 0.00 42 1009.8
20260508061557 44 177 2.0 7.0 0.00 0.00 0.00 42 1010.0
20260508061055 44 153 1.0 5.0 0.00 0.00 0.00 42 1010.0
20260508060556 44 126 1.0 5.0 0.00 0.00 0.00 42 1009.9
20260508060106 44 214 1.0 5.0 0.00 0.00 0.00 42 1009.9
20260508055554 44 174 1.0 4.0 0.00 0.00 0.00 42 1009.9
20260508055055 44 188 1.0 4.0 0.00 0.00 0.00 43 1009.9
20260508054603 43 179 1.0 4.0 0.00 0.00 0.00 44 1010.1
20260508054057 43 218 0.0 2.0 0.00 0.00 0.00 44 1010.0
20260508053554 43 0 0.0 2.0 0.00 0.00 0.00 45 1010.1
20260508053102 42 0 0.0 1.0 0.00 0.00 0.00 45 1010.1
20260508052553 43 0 0.0 1.0 0.00 0.00 0.00 46 1010.1
20260508052054 43 147 0.0 1.0 0.00 0.00 0.00 45 1010.2
20260508051554 43 0 0.0 1.0 0.00 0.00 0.00 45 1010.2
20260508051054 42 0 0.0 3.0 0.00 0.00 0.00 46 1010.1
20260508050554 42 0 0.0 3.0 0.00 0.00 0.00 46 1010.2
20260508050059 42 327 0.0 1.0 0.00 0.00 0.00 47 1010.1
20260508045554 41 321 0.0 1.0 0.00 0.00 0.00 48 1010.2
20260508045056 40 360 0.0 1.0 0.00 0.00 0.00 50 1010.2
20260508044556 39 0 0.0 1.0 0.00 0.00 0.00 55 1010.4
20260508044056 39 0 0.0 1.0 0.00 0.00 0.00 55 1010.3
20260508043557 39 0 0.0 1.0 0.00 0.00 0.00 55 1010.4
20260508043055 40 0 0.0 1.0 0.00 0.00 0.00 53 1010.4
20260508042557 38 249 0.0 1.0 0.00 0.00 0.00 54 1010.5
20260508042100 38 233 0.0 1.0 0.00 0.00 0.00 57 1010.5
20260508041604 37 236 0.0 1.0 0.00 0.00 0.00 60 1010.5
20260508041057 34 0 0.0 0.0 0.00 0.00 0.00 64 1010.4
20260508040557 34 0 0.0 0.0 0.00 0.00 0.00 62 1010.5
20260508040113 34 0 0.0 0.0 0.00 0.00 0.00 62 1010.5
20260508035556 34 0 0.0 0.0 0.00 0.00 0.00 62 1010.5
20260508035057 34 0 0.0 0.0 0.00 0.00 0.00 62 1010.6
20260508034557 34 0 0.0 1.0 0.00 0.00 0.00 61 1010.6
20260508034056 34 0 0.0 1.0 0.00 0.00 0.00 62 1010.7
20260508033559 34 0 0.0 0.0 0.00 0.00 0.00 63 1010.6
20260508033102 35 0 0.0 0.0 0.00 0.00 0.00 60 1010.7
20260508032554 35 0 0.0 0.0 0.00 0.00 0.00 61 1010.7
20260508032056 35 0 0.0 0.0 0.00 0.00 0.00 64 1010.6
20260508031556 35 0 0.0 0.0 0.00 0.00 0.00 63 1010.7
20260508031053 34 0 0.0 0.0 0.00 0.00 0.00 67 1010.6
20260508030557 34 0 0.0 0.0 0.00 0.00 0.00 65 1010.6
20260508030131 34 0 0.0 0.0 0.00 0.00 0.00 64 1010.6
20260508025553 35 0 0.0 0.0 0.00 0.00 0.00 63 1010.5
20260508025056 36 0 0.0 0.0 0.00 0.00 0.00 61 1010.5
20260508024606 36 0 0.0 0.0 0.00 0.00 0.00 59 1010.5
20260508024057 37 0 0.0 0.0 0.00 0.00 0.00 58 1010.4
20260508023557 38 0 0.0 0.0 0.00 0.00 0.00 57 1010.3
20260508023058 39 0 0.0 0.0 0.00 0.00 0.00 53 1010.2
20260508022556 40 0 0.0 0.0 0.00 0.00 0.00 51 1010.3
20260508022054 41 0 0.0 0.0 0.00 0.00 0.00 47 1010.2
20260508021559 42 0 0.0 0.0 0.00 0.00 0.00 46 1010.2
20260508021058 43 0 0.0 0.0 0.00 0.00 0.00 42 1010.0
20260508020553 43 0 0.0 0.0 0.00 0.00 0.00 42 1010.0
20260508020100 44 0 0.0 0.0 0.00 0.00 0.00 40 1009.9
20260508015557 44 0 0.0 0.0 0.00 0.00 0.00 38 1009.9
20260508015056 45 0 0.0 0.0 0.00 0.00 0.00 38 1009.8
20260508014559 45 0 0.0 0.0 0.00 0.00 0.00 38 1009.8
20260508014056 46 0 0.0 0.0 0.00 0.00 0.00 36 1009.7
20260508013553 47 0 0.0 0.0 0.00 0.00 0.00 34 1009.7
20260508013057 48 0 0.0 0.0 0.00 0.00 0.00 34 1009.8
20260508012553 48 0 0.0 0.0 0.00 0.00 0.00 35 1009.7
20260508012056 49 0 0.0 0.0 0.00 0.00 0.00 35 1009.7
20260508011609 50 0 0.0 0.0 0.00 0.00 0.00 35 1009.6
20260508011053 50 0 0.0 0.0 0.00 0.00 0.00 34 1009.6
20260508010559 51 0 0.0 0.0 0.00 0.00 0.00 33 1009.5
20260508010106 52 0 0.0 0.0 0.00 0.00 0.00 32 1009.6
20260508005557 52 0 0.0 1.0 0.00 0.00 0.00 32 1009.5
20260508005056 52 0 0.0 1.0 0.00 0.00 0.00 31 1009.5
20260508004604 52 0 0.0 1.0 0.00 0.00 0.00 32 1009.5
20260508004057 53 0 0.0 1.0 0.00 0.00 0.00 32 1009.6
20260508003556 53 0 0.0 2.0 0.00 0.00 0.00 32 1009.5
20260508003110 54 0 0.0 2.0 0.00 0.00 0.00 30 1009.5
20260508002556 54 0 0.0 2.0 0.00 0.00 0.00 30 1009.6
20260508002053 55 0 0.0 3.0 0.00 0.00 0.00 28 1009.5
20260508001556 56 0 0.0 5.0 0.00 0.00 0.00 28 1009.5
20260508001057 57 260 2.0 5.0 0.00 0.00 0.00 25 1009.6
20260508000556 57 236 0.0 3.0 0.00 0.00 0.00 26 1009.7
20260508000056 57 0 0.0 3.0 0.00 0.00 0.00 28 1009.7
20260507235553 57 0 2.0 5.0 0.00 0.00 0.00 26 1009.7
20260507235056 57 258 2.0 5.0 0.00 0.00 0.00 27 1009.8
20260507234559 57 290 2.0 4.0 0.00 0.00 0.00 27 1009.8
20260507234056 57 277 2.0 8.0 0.00 0.00 0.00 27 1009.8
20260507233557 57 292 2.0 8.0 0.00 0.00 0.00 26 1009.8
20260507233100 57 235 2.0 8.0 0.00 0.00 0.00 26 1009.9
20260507232552 58 304 3.0 5.0 0.00 0.00 0.00 26 1009.9
20260507232057 58 278 1.0 6.0 0.00 0.00 0.00 25 1009.9
20260507231615 58 322 2.0 6.0 0.00 0.00 0.00 25 1009.9
20260507231056 58 310 1.0 5.0 0.00 0.00 0.00 27 1009.9
20260507230557 58 310 1.0 6.0 0.00 0.00 0.00 26 1009.9
20260507230100 58 312 0.0 6.0 0.00 0.00 0.00 25 1009.9
20260507225558 58 0 3.0 8.0 0.00 0.00 0.00 27 1010.0
20260507225058 58 293 2.0 8.0 0.00 0.00 0.00 26 1010.0
20260507224606 58 310 0.0 4.0 0.00 0.00 0.00 29 1010.0
20260507224054 58 315 1.0 4.0 0.00 0.00 0.00 26 1010.0
20260507223553 58 289 1.0 6.0 0.00 0.00 0.00 28 1010.1
20260507223057 57 273 2.0 6.0 0.00 0.00 0.00 25 1010.1
20260507222557 58 324 1.0 6.0 0.00 0.00 0.00 28 1010.1
20260507222053 58 304 2.0 7.0 0.00 0.00 0.00 26 1010.2
20260507221559 58 298 2.0 7.0 0.00 0.00 0.00 28 1010.1
20260507221053 58 344 3.0 7.0 0.00 0.00 0.00 27 1010.2
20260507220555 58 147 2.0 7.0 0.00 0.00 0.00 27 1010.1
20260507220055 57 240 2.0 8.0 0.00 0.00 0.00 28 1010.2
20260507215555 58 280 1.0 8.0 0.00 0.00 0.00 25 1010.3
20260507215057 57 327 2.0 9.0 0.00 0.00 0.00 29 1010.3
20260507214606 57 2 4.0 10.0 0.00 0.00 0.00 26 1010.3
20260507214059 57 281 3.0 10.0 0.00 0.00 0.00 27 1010.3
20260507213556 57 300 4.0 8.0 0.00 0.00 0.00 28 1010.2
20260507213109 57 22 3.0 8.0 0.00 0.00 0.00 31 1010.3
20260507212553 57 327 3.0 8.0 0.00 0.00 0.00 31 1010.3
20260507212056 57 248 4.0 8.0 0.00 0.00 0.00 25 1010.3
20260507211601 57 299 2.0 7.0 0.00 0.00 0.00 27 1010.3
20260507211056 57 359 3.0 9.0 0.00 0.00 0.00 28 1010.4
20260507210553 56 320 2.0 9.0 0.00 0.00 0.00 29 1010.3
20260507210057 57 266 3.0 9.0 0.00 0.00 0.00 26 1010.4
20260507205558 56 295 2.0 9.0 0.00 0.00 0.00 29 1010.3
20260507205053 57 311 3.0 9.0 0.00 0.00 0.00 26 1010.3
20260507204607 57 307 2.0 7.0 0.00 0.00 0.00 27 1010.3
20260507204055 56 295 2.0 8.0 0.00 0.00 0.00 29 1010.4
20260507203556 56 305 4.0 11.0 0.00 0.00 0.00 26 1010.6
20260507203111 56 268 3.0 12.0 0.00 0.00 0.00 26 1010.5
20260507202556 56 7 8.0 12.0 0.00 0.00 0.00 30 1010.5
20260507202056 56 360 4.0 8.0 0.00 0.00 0.00 31 1010.5
20260507201610 56 203 3.0 8.0 0.00 0.00 0.00 31 1010.7
20260507201056 56 272 3.0 10.0 0.00 0.00 0.00 31 1010.6
20260507200552 56 275 4.0 10.0 0.00 0.00 0.00 26 1010.7
20260507200101 56 328 3.0 8.0 0.00 0.00 0.00 27 1010.9
20260507195556 56 311 3.0 8.0 0.00 0.00 0.00 29 1010.9
20260507195053 56 326 3.0 10.0 0.00 0.00 0.00 30 1010.9
20260507194557 56 294 4.0 10.0 0.00 0.00 0.00 31 1011.0
20260507194053 56 5 4.0 8.0 0.00 0.00 0.00 28 1010.9
20260507193553 56 273 2.0 8.0 0.00 0.00 0.00 32 1011.0
20260507193111 56 293 2.0 8.0 0.00 0.00 0.00 30 1010.9
20260507192555 56 11 4.0 8.0 0.00 0.00 0.00 29 1010.9
20260507192056 55 209 2.0 8.0 0.00 0.00 0.00 33 1010.8
20260507191559 56 274 3.0 8.0 0.00 0.00 0.00 31 1010.9
20260507191055 56 282 3.0 8.0 0.00 0.00 0.00 33 1010.9
20260507190556 55 259 4.0 8.0 0.00 0.00 0.00 31 1010.9
20260507185555 55 290 4.0 8.0 0.00 0.00 0.00 31 1010.8
20260507185055 55 301 2.0 9.0 0.00 0.00 0.00 31 1011.0
20260507184554 55 288 3.0 9.0 0.00 0.00 0.00 30 1011.0
20260507184056 55 230 3.0 8.0 0.00 0.00 0.00 27 1011.1
20260507183556 55 295 2.0 9.0 0.00 0.00 0.00 31 1011.1
20260507183059 54 324 3.0 9.0 0.00 0.00 0.00 32 1011.1
20260507182557 54 322 3.0 9.0 0.00 0.00 0.00 32 1011.2
20260507182056 55 305 3.0 7.0 0.00 0.00 0.00 31 1011.1
20260507181556 55 325 2.0 10.0 0.00 0.00 0.00 31 1011.3
20260507181055 54 263 3.0 10.0 0.00 0.00 0.00 32 1011.1
20260507180553 54 302 5.0 10.0 0.00 0.00 0.00 31 1011.2
20260507180101 54 304 3.0 7.0 0.00 0.00 0.00 32 1011.3
20260507175553 54 314 2.0 7.0 0.00 0.00 0.00 33 1011.4
20260507175053 54 278 3.0 6.0 0.00 0.00 0.00 35 1011.5
20260507174555 54 314 2.0 6.0 0.00 0.00 0.00 32 1011.6
20260507174054 54 289 3.0 7.0 0.00 0.00 0.00 33 1011.6
20260507173553 53 347 4.0 7.0 0.00 0.00 0.00 36 1011.5
20260507173058 53 297 3.0 7.0 0.00 0.00 0.00 37 1011.5
20260507172552 53 238 2.0 7.0 0.00 0.00 0.00 35 1011.6
20260507172056 53 303 2.0 7.0 0.00 0.00 0.00 36 1011.7
20260507171605 52 309 3.0 11.0 0.00 0.00 0.00 35 1011.7
20260507171056 51 349 5.0 11.0 0.00 0.00 0.00 36 1011.9
20260507170559 52 10 6.0 11.0 0.00 0.00 0.00 39 1012.0
20260507170059 52 347 4.0 9.0 0.00 0.00 0.00 38 1011.9
20260507165555 52 282 1.0 10.0 0.00 0.00 0.00 34 1011.9
20260507165054 52 285 3.0 10.0 0.00 0.00 0.00 35 1011.9
20260507164557 52 314 3.0 9.0 0.00 0.00 0.00 36 1011.9
20260507164057 51 249 2.0 7.0 0.00 0.00 0.00 34 1011.9
20260507163558 52 288 2.0 10.0 0.00 0.00 0.00 36 1012.0
20260507163105 51 275 3.0 10.0 0.00 0.00 0.00 39 1012.1
20260507162557 51 65 2.0 9.0 0.00 0.00 0.00 36 1012.1
20260507162058 51 11 4.0 8.0 0.00 0.00 0.00 35 1012.1
20260507161557 50 321 3.0 7.0 0.00 0.00 0.00 38 1012.2
20260507161055 50 353 3.0 7.0 0.00 0.00 0.00 38 1012.3
20260507160553 50 251 1.0 6.0 0.00 0.00 0.00 38 1012.3
20260507155553 49 354 3.0 9.0 0.00 0.00 0.00 39 1012.4
20260507155053 49 25 3.0 10.0 0.00 0.00 0.00 39 1012.5
20260507154554 49 311 3.0 10.0 0.00 0.00 0.00 38 1012.5
20260507154053 49 32 5.0 12.0 0.00 0.00 0.00 39 1012.4
20260507153554 49 1 5.0 12.0 0.00 0.00 0.00 40 1012.5
20260507153057 49 338 3.0 9.0 0.00 0.00 0.00 45 1012.5
20260507152555 48 231 2.0 8.0 0.00 0.00 0.00 45 1012.4
20260507152052 48 290 2.0 8.0 0.00 0.00 0.00 45 1012.4
20260507151558 47 239 3.0 8.0 0.00 0.00 0.00 44 1012.5
20260507151056 47 44 1.0 5.0 0.00 0.00 0.00 45 1012.5
20260507150556 47 312 2.0 12.0 0.00 0.00 0.00 44 1012.6
20260507150100 47 236 2.0 12.0 0.00 0.00 0.00 48 1012.5
20260507145553 46 17 4.0 12.0 0.00 0.00 0.00 51 1012.5
20260507145055 46 13 5.0 8.0 0.00 0.00 0.00 50 1012.5
20260507144559 46 17 5.0 10.0 0.00 0.00 0.00 51 1012.6
20260507144056 46 4 4.0 10.0 0.00 0.00 0.00 50 1012.6
20260507143556 47 349 4.0 10.0 0.00 0.00 0.00 51 1012.7
20260507143055 47 25 1.0 6.0 0.00 0.00 0.00 50 1012.7
20260507142552 46 6 2.0 6.0 0.00 0.00 0.00 53 1012.7
20260507142052 46 276 2.0 7.0 0.00 0.00 0.00 50 1012.8
20260507141602 46 293 3.0 7.0 0.00 0.00 0.00 51 1012.7
20260507141052 46 304 2.0 5.0 0.00 0.00 0.00 52 1012.8
20260507140556 46 279 2.0 5.0 0.00 0.00 0.00 52 1012.9
20260507140116 46 288 2.0 5.0 0.00 0.00 0.00 51 1012.9
20260507135553 47 300 2.0 5.0 0.00 0.00 0.00 51 1012.8
20260507135053 47 289 1.0 5.0 0.00 0.00 0.00 55 1012.8
20260507134556 46 289 1.0 5.0 0.00 0.00 0.00 54 1012.9
20260507134054 46 316 2.0 4.0 0.00 0.00 0.00 52 1012.9
20260507133556 46 285 2.0 4.0 0.00 0.00 0.00 54 1013.0
20260507133100 46 252 1.0 6.0 0.00 0.00 0.00 54 1012.9
20260507132554 46 295 2.0 6.0 0.00 0.00 0.00 56 1013.0
20260507132056 46 322 2.0 6.0 0.00 0.00 0.00 55 1013.1
20260507131611 45 314 1.0 4.0 0.00 0.00 0.00 57 1013.0
20260507131057 45 242 1.0 4.0 0.00 0.00 0.00 57 1013.0
20260507130552 45 277 0.0 2.0 0.00 0.00 0.00 60 1013.0
20260507130109 45 312 0.0 2.0 0.00 0.00 0.00 58 1013.0
20260507125558 44 327 1.0 2.0 0.00 0.00 0.00 59 1013.0
20260507125056 44 0 0.0 2.0 0.00 0.00 0.00 59 1013.0
20260507124607 44 0 0.0 2.0 0.00 0.00 0.00 61 1013.0
20260507124052 43 318 0.0 2.0 0.00 0.00 0.00 62 1013.0
20260507123553 43 318 0.0 3.0 0.00 0.00 0.00 62 1013.0
20260507123101 43 306 1.0 3.0 0.00 0.00 0.00 63 1013.0
20260507122555 42 289 0.0 2.0 0.00 0.00 0.00 65 1013.0
20260507122056 42 295 1.0 2.0 0.00 0.00 0.00 66 1013.0
20260507121556 42 290 0.0 2.0 0.00 0.00 0.00 67 1013.0
20260507121053 41 264 0.0 1.0 0.00 0.00 0.00 67 1013.0
20260507120552 40 0 0.0 1.0 0.00 0.00 0.00 68 1012.9
20260507120058 39 0 0.0 1.0 0.00 0.00 0.00 69 1013.0
20260507115552 39 0 0.0 1.0 0.00 0.00 0.00 69 1013.0
20260507115055 38 264 0.0 1.0 0.00 0.00 0.00 70 1013.0
20260507114605 37 264 0.0 2.0 0.00 0.00 0.00 70 1012.9
20260507114059 37 266 0.0 3.0 0.00 0.00 0.00 69 1012.9
20260507113552 37 0 1.0 5.0 0.00 0.00 0.00 68 1012.9
20260507113056 37 262 2.0 5.0 0.00 0.00 0.00 69 1012.8
20260507112555 35 276 2.0 4.0 0.00 0.00 0.00 74 1012.9
20260507112056 33 187 0.0 3.0 0.00 0.00 0.00 76 1012.9
20260507111554 33 275 1.0 3.0 0.00 0.00 0.00 77 1012.9
20260507111053 32 279 1.0 3.0 0.00 0.00 0.00 77 1012.8
20260507110555 32 287 0.0 3.0 0.00 0.00 0.00 76 1012.9
20260507110055 31 147 1.0 3.0 0.00 0.00 0.00 77 1013.0
20260507105556 31 209 1.0 3.0 0.00 0.00 0.00 78 1013.1
20260507105052 30 257 2.0 3.0 0.00 0.00 0.00 80 1013.0
20260507104600 29 253 0.0 2.0 0.00 0.00 0.00 82 1013.1
20260507104054 28 256 0.0 2.0 0.00 0.00 0.00 81 1013.0
20260507103554 28 187 0.0 2.0 0.00 0.00 0.00 81 1013.0
20260507103103 28 269 0.0 2.0 0.00 0.00 0.00 81 1013.1
20260507102555 28 262 0.0 2.0 0.00 0.00 0.00 80 1013.0
20260507102055 28 250 1.0 2.0 0.00 0.00 0.00 81 1013.0
20260507101600 27 259 1.0 2.0 0.00 0.00 0.00 80 1013.0
20260507101055 27 200 0.0 2.0 0.00 0.00 0.00 80 1013.1
20260507100555 28 277 1.0 2.0 0.00 0.00 0.00 81 1013.1
20260507100106 27 266 0.0 2.0 0.00 0.00 0.00 80 1013.1
20260507095556 28 271 1.0 2.0 0.00 0.00 0.00 81 1013.3
20260507095056 28 247 1.0 2.0 0.00 0.00 0.00 80 1013.1
20260507094600 27 245 0.0 2.0 0.00 0.00 0.00 80 1013.2
20260507094056 27 238 0.0 2.0 0.00 0.00 0.00 80 1013.3
20260507093555 27 235 0.0 3.0 0.00 0.00 0.00 79 1013.3
20260507093101 28 276 0.0 3.0 0.00 0.00 0.00 79 1013.3
20260507092557 28 215 1.0 3.0 0.00 0.00 0.00 79 1013.3
20260507092055 28 214 1.0 3.0 0.00 0.00 0.00 79 1013.4
20260507091559 28 264 1.0 2.0 0.00 0.00 0.00 79 1013.4
20260507091053 28 242 0.0 2.0 0.00 0.00 0.00 78 1013.3
20260507090552 28 201 0.0 2.0 0.00 0.00 0.00 78 1013.4
20260507090056 28 220 0.0 2.0 0.00 0.00 0.00 78 1013.5
20260507085557 28 264 0.0 2.0 0.00 0.00 0.00 78 1013.5
20260507085055 29 238 0.0 1.0 0.00 0.00 0.00 79 1013.5
20260507084557 29 255 0.0 2.0 0.00 0.00 0.00 79 1013.5
20260507084054 29 0 0.0 2.0 0.00 0.00 0.00 76 1013.5
20260507083555 30 0 1.0 2.0 0.00 0.00 0.00 76 1013.5
20260507083102 29 262 1.0 2.0 0.00 0.00 0.00 77 1013.5
20260507082552 29 272 0.0 2.0 0.00 0.00 0.00 77 1013.5
20260507082051 29 0 1.0 2.0 0.00 0.00 0.00 78 1013.6
20260507081554 29 264 1.0 2.0 0.00 0.00 0.00 79 1013.6
20260507081053 28 243 0.0 2.0 0.00 0.00 0.00 78 1013.6
20260507080552 29 225 1.0 2.0 0.00 0.00 0.00 78 1013.5
20260507080116 29 269 0.0 2.0 0.00 0.00 0.00 77 1013.5
20260507075556 29 200 1.0 2.0 0.00 0.00 0.00 78 1013.6
20260507075055 29 256 1.0 2.0 0.00 0.00 0.00 78 1013.6
20260507074601 29 252 0.0 2.0 0.00 0.00 0.00 77 1013.6
20260507074051 29 247 0.0 2.0 0.00 0.00 0.00 77 1013.7
20260507073555 29 238 0.0 2.0 0.00 0.00 0.00 76 1013.8
20260507073103 30 284 0.0 2.0 0.00 0.00 0.00 75 1013.8
20260507072551 30 265 0.0 2.0 0.00 0.00 0.00 74 1014.1
20260507072052 30 0 0.0 2.0 0.00 0.00 0.00 75 1014.1
20260507071604 31 247 1.0 2.0 0.00 0.00 0.00 75 1014.1
20260507071055 31 239 1.0 2.0 0.00 0.00 0.00 75 1014.1
20260507070555 31 0 0.0 2.0 0.00 0.00 0.00 74 1014.1
20260507070057 31 0 0.0 2.0 0.00 0.00 0.00 74 1014.2
20260507065554 31 234 0.0 1.0 0.00 0.00 0.00 74 1014.3
20260507065055 31 0 0.0 3.0 0.00 0.00 0.00 74 1014.3
20260507064558 32 179 1.0 3.0 0.00 0.00 0.00 74 1014.4
20260507064052 32 270 1.0 3.0 0.00 0.00 0.00 75 1014.4
20260507063551 32 196 0.0 2.0 0.00 0.00 0.00 75 1014.3